{"data":{"norad_id":52502,"epoch":"2026-09-19T14:20:28.641408Z","epoch_age_seconds":141191,"freshness":"FRESH","line1":"1 52502U 22049BD  26262.59755372 -.00002944  00000+0 -73558-4 0  9994","line2":"2 52502  53.1591 241.6372 0001086 104.8712 255.2411 15.35389005241896","mean_motion":15.35389005,"eccentricity":0.0001086,"inclination_deg":53.1591,"raan_deg":241.6372,"arg_perigee_deg":104.8712,"mean_anomaly_deg":255.2411,"bstar":-7.3558e-5,"rev_number":24189,"period_min":93.787307015397,"perigee_km":459.02269073899,"apogee_km":460.50788311571,"semimajor_km":6837.9022869274,"source":"CELESTRAK","updated_at":"2026-09-20T09:00:40.057463Z"}}